This demonstration page uses our WeatherBlox Daily Observations layout. Learn more.

41.55636, -103.73856

Hourly Observations for January 4, 2019

Temp ( °F °C ) Dew Point ( °F °C ) Humidity (%) Winds ( mph kmh ) Pressure ( in mb ) Visibility ( mi km ) Precip ( " mm )
12:53 am 00:53 Clear 28 -2.2 20 -6.7 72 72 NW 8 13 29.94 1014 10 16.09344 0 0
1:53 am 01:53 Clear 28 -2.2 20 -6.7 72 72 NW 5 7 29.94 1014 10 16.09344 0 0
2:53 am 02:53 Clear 31 -0.6 22 -5.6 69 69 NW 10 17 29.94 1014 10 16.09344 0 0
3:53 am 03:53 Clear 30 -1.1 21 -6.1 69 69 NW 10 17 29.94 1014 10 16.09344 0 0
4:53 am 04:53 Clear 26 -3.3 20 -6.7 78 78 NNW 9 15 29.97 1015 10 16.09344 0 0
5:53 am 05:53 Clear 26 -3.3 20 -6.7 78 78 NNW 9 15 30 1016 10 16.09344 0 0
6:53 am 06:53 Clear 26 -3.3 20 -6.7 78 78 WNW 7 11 30 1016 10 16.09344 0 0
7:53 am 07:53 Sunny 28 -2.2 21 -6.1 75 75 WNW 7 11 30.03 1017 10 16.09344 0 0
8:53 am 08:53 Sunny 37 2.8 24 -4.4 59 59 WNW 6 9 30.03 1017 10 16.09344 0 0
9:53 am 09:53 Sunny 45 7.2 25 -3.9 46 46 NW 9 15 30.03 1017 10 16.09344 0 0
10:53 am 10:53 Sunny 51 10.6 24 -4.4 35 35 WNW 13 20 29.97 1015 10 16.09344 0 0
11:53 am 11:53 Sunny 57 13.9 24 -4.4 28 28 WNW 10 17 29.91 1013 10 16.09344 0 0
12:53 pm 12:53 Sunny 60 15.6 25 -3.9 26 26 W 7 11 29.88 1012 10 16.09344 0 0
1:53 pm 13:53 Sunny 62 16.7 24 -4.4 23 23 NW 10 17 29.88 1012 10 16.09344 0 0
2:53 pm 14:53 Sunny 62 16.7 22 -5.6 21 21 WNW 13 20 29.88 1012 10 16.09344 0 0
3:53 pm 15:53 Sunny 57 13.9 21 -6.1 25 25 WNW 9 15 29.91 1013 10 16.09344 0 0
4:53 pm 16:53 Clear 50 10 18 -7.8 28 28 Calm 29.94 1014 10 16.09344 0 0
5:53 pm 17:53 Clear 43 6.1 20 -6.7 40 40 W 9 15 29.97 1015 10 16.09344 0 0
6:53 pm 18:53 Clear 36 2.2 19 -7.2 50 50 N 8 13 30 1016 10 16.09344 0 0
7:53 pm 19:53 Clear 35 1.7 19 -7.2 52 52 Calm 30 1016 10 16.09344 0 0
8:53 pm 20:53 Clear 38 3.3 21 -6.1 51 51 WNW 6 9 29.97 1015 10 16.09344 0 0
9:53 pm 21:53 Clear 31 -0.6 19 -7.2 61 61 Calm 29.97 1015 10 16.09344 0 0
10:53 pm 22:53 Clear 33 0.6 21 -6.1 61 61 NNE 3 6 29.94 1014 10 16.09344 0 0
11:53 pm 23:53 Clear 32 0 21 -6.1 64 64 NNW 3 6 29.94 1014 10 16.09344 0 0

Powered by AerisWeather